IZ2OSD Weather Reports


time (UTC)temp
C
wind
direction
speed
KPH
gust
KPH
rain 1hr
cm
rain 24hr
cm
rain mn
cm
humidity
%
barometer
mb
20260904051005 20 315 1.6 1.6 0.00 0.00 0.00 77 1018.6
20260904050002 20 315 1.6 3.2 0.00 0.00 0.00 76 1018.4
20260904045500 20 337 0.0 3.2 0.00 0.00 0.00 76 1018.6
20260904044457 20 0.0 0.0 0.00 0.00 0.00 75 1018.3
20260904043136 20 315 1.6 3.2 0.00 0.00 0.00 76 1018.6
20260904042127 20 0.0 0.0 0.00 0.00 0.00 76 1018.4
20260904041143 20 0.0 0.0 0.00 0.00 0.00 76 1018.3
20260904040118 20 0.0 0.0 0.00 0.00 0.00 77 1018.5
20260904035115 20 0.0 0.0 0.00 0.00 0.00 76 1018.6
20260904034112 20 0.0 0.0 0.00 0.00 0.00 77 1018.3
20260904033109 20 0.0 0.0 0.00 0.00 0.00 75 1018.5
20260904032107 21 0.0 0.0 0.00 0.00 0.00 74 1018.7
20260904031124 21 0.0 0.0 0.00 0.00 0.00 74 1018.6
20260904030058 21 0.0 0.0 0.00 0.00 0.00 74 1018.5
20260904025108 21 0.0 0.0 0.00 0.00 0.00 75 1018.4
20260904024045 21 0.0 0.0 0.00 0.00 0.00 75 1018.4
20260904023037 21 0.0 0.0 0.00 0.00 0.00 74 1018.4
20260904022025 21 0.0 0.0 0.00 0.00 0.00 74 1018.7
20260904021041 21 0.0 0.0 0.00 0.00 0.00 72 1018.3
20260904020013 22 0.0 0.0 0.00 0.00 0.00 71 1018.3
20260904015011 22 0.0 0.0 0.00 0.00 0.00 71 1018.4
20260904014010 22 0.0 0.0 0.00 0.00 0.00 70 1018.5
20260904013006 22 0.0 0.0 0.00 0.00 0.00 69 1018.3
20260904012004 22 0.0 0.0 0.00 0.00 0.00 67 1018.3
20260904011001 22 0.0 0.0 0.00 0.00 0.00 68 1018.5
20260904005958 22 315 1.6 3.2 0.00 0.00 0.00 68 1018.5
20260904004946 22 0.0 0.0 0.00 0.00 0.00 67 1018.2
20260904003519 22 0.0 0.0 0.00 0.00 0.00 66 1018.5
20260904002425 22 0.0 0.0 0.00 0.00 0.00 67 1018.6
20260904001421 22 0.0 0.0 0.00 0.00 0.00 67 1018.6
20260904000411 22 0.0 0.0 0.00 0.00 0.00 67 1018.7
20260903235425 22 0.0 0.0 0.00 0.00 0.00 67 1018.5
20260903234401 22 0.0 0.0 0.00 0.00 0.00 68 1018.7
20260903233400 22 315 0.0 1.6 0.00 0.00 0.00 68 1018.9
20260903232357 22 0.0 0.0 0.00 0.00 0.00 67 1018.6
20260903231352 23 0.0 0.0 0.00 0.00 0.00 65 1018.6
20260903230350 22 0.0 1.6 0.00 0.00 0.00 66 1018.5
20260903225347 22 0.0 0.0 0.00 0.00 0.00 67 1018.6
20260903224340 22 0.0 0.0 0.00 0.00 0.00 68 1018.5
20260903223337 23 315 1.6 4.8 0.00 0.00 0.00 67 1018.6
20260903222335 23 315 1.6 3.2 0.00 0.00 0.00 67 1018.6
20260903221348 22 315 1.6 3.2 0.00 0.00 0.00 68 1018.7
20260903220323 23 0.0 0.0 0.00 0.00 0.00 65 1018.5
20260903215313 23 0.0 0.0 0.00 0.00 0.00 66 1018.6
20260903214350 23 0.0 0.0 0.00 0.00 0.00 65 1018.5
20260903213305 23 0.0 0.0 0.00 0.00 0.00 67 1018.4
20260903212306 23 0.0 0.0 0.00 0.00 0.00 70 1018.3
20260903211338 23 0.0 0.0 0.00 0.00 0.00 70 1018.3
20260903205349 25 0.0 0.0 0.00 0.00 0.00 61 1018.5
20260903204343 25 0.0 0.0 0.00 0.00 0.00 61 1018.4
20260903203339 25 0.0 0.0 0.00 0.00 0.00 61 1018.4
20260903202336 25 0.0 0.0 0.00 0.00 0.00 61 1018.4
20260903201333 26 0.0 0.0 0.00 0.00 0.00 59 1018.1
20260903200329 26 0.0 0.0 0.00 0.00 0.00 59 1018.4
20260903195326 26 0.0 0.0 0.00 0.00 0.00 58 1018.3
20260903194322 26 0.0 0.0 0.00 0.00 0.00 58 1017.9
20260903193353 26 0.0 0.0 0.00 0.00 0.00 58 1018.1
20260903192309 26 0.0 0.0 0.00 0.00 0.00 58 1018.1
20260903191258 26 0.0 0.0 0.00 0.00 0.00 58 1017.9
20260903185800 27 0.0 0.0 0.00 0.00 0.00 59 1017.8
20260903184757 27 0.0 0.0 0.00 0.00 0.00 58 1017.7
20260903183753 27 0.0 0.0 0.00 0.00 0.00 58 1017.6
20260903182810 28 0.0 0.0 0.00 0.00 0.00 55 1017.4
20260903181747 28 0.0 0.0 0.00 0.00 0.00 54 1017.4
20260903180737 28 0.0 0.0 0.00 0.00 0.00 53 1017.3
20260903175733 29 0.0 0.0 0.00 0.00 0.00 53 1017.3
20260903174745 30 0.0 0.0 0.00 0.00 0.00 51 1017.2
20260903173718 30 0.0 0.0 0.00 0.00 0.00 49 1016.9
20260903172716 30 0.0 1.6 0.00 0.00 0.00 48 1017.2
20260903171712 30 0.0 0.0 0.00 0.00 0.00 47 1017.1
20260903170710 30 0.0 0.0 0.00 0.00 0.00 46 1017.0
20260903165706 30 0.0 0.0 0.00 0.00 0.00 45 1017.2
20260903164703 31 315 0.0 1.6 0.00 0.00 0.00 46 1017.1
20260903163700 31 270 0.0 4.8 0.00 0.00 0.00 45 1017.1
20260903161816 31 0.0 1.6 0.00 0.00 0.00 41 1017.1
20260903160832 31 0.0 0.0 0.00 0.00 0.00 41 1017.1
20260903155802 31 0.0 0.0 0.00 0.00 0.00 40 1017.3
20260903154758 31 315 0.0 3.2 0.00 0.00 0.00 39 1017.2
20260903153755 31 0.0 0.0 0.00 0.00 0.00 43 1017.0
20260903152751 31 0.0 0.0 0.00 0.00 0.00 44 1017.2
20260903151747 31 0.0 1.6 0.00 0.00 0.00 43 1017.1
20260903150744 32 0.0 0.0 0.00 0.00 0.00 42 1017.3
20260903145740 32 0.0 0.0 0.00 0.00 0.00 42 1017.4
20260903144736 31 0.0 0.0 0.00 0.00 0.00 42 1017.2
20260903143749 31 0.0 1.6 0.00 0.00 0.00 43 1017.3
20260903142723 31 0.0 3.2 0.00 0.00 0.00 43 1017.5
20260903141802 32 0.0 1.6 0.00 0.00 0.00 42 1017.4
20260903140717 32 135 0.0 3.2 0.00 0.00 0.00 41 1017.8
20260903135713 32 0 1.6 6.4 0.00 0.00 0.00 41 1017.5
20260903134724 32 337 0.0 1.6 0.00 0.00 0.00 45 1017.7
20260903133659 32 0.0 1.6 0.00 0.00 0.00 45 1017.9
20260903131752 32 315 0.0 3.2 0.00 0.00 0.00 45 1018.1
20260903130749 32 0.0 1.6 0.00 0.00 0.00 45 1018.3
20260903125746 32 0.0 0.0 0.00 0.00 0.00 44 1018.5
20260903124737 31 0.0 1.6 0.00 0.00 0.00 45 1018.3
20260903123727 31 315 0.0 3.2 0.00 0.00 0.00 46 1018.6
20260903122724 31 315 4.8 4.8 0.00 0.00 0.00 46 1018.6
20260903121742 31 315 0.0 3.2 0.00 0.00 0.00 47 1018.7
20260903120717 31 135 0.0 3.2 0.00 0.00 0.00 47 1018.9
20260903115713 30 0.0 0.0 0.00 0.00 0.00 52 1019.0
20260903114703 30 112 0.0 1.6 0.00 0.00 0.00 52 1019.0
20260903113659 31 112 0.0 1.6 0.00 0.00 0.00 49 1018.8
20260903112649 30 315 3.2 4.8 0.00 0.00 0.00 50 1018.8
20260903111646 30 135 3.2 6.4 0.00 0.00 0.00 51 1018.8
20260903110636 31 315 0.0 3.2 0.00 0.00 0.00 50 1019.1
20260903105651 30 135 3.2 4.8 0.00 0.00 0.00 51 1019.2
20260903104626 30 315 0.0 1.6 0.00 0.00 0.00 51 1019.3
20260903103644 28 315 3.2 9.7 0.00 0.00 0.00 55 1019.4
20260903102615 28 135 0.0 3.2 0.00 0.00 0.00 55 1019.6
20260903101611 30 315 0.0 1.6 0.00 0.00 0.00 52 1019.7
20260903100605 29 315 1.6 3.2 0.00 0.00 0.00 54 1020.0
20260903095643 30 337 1.6 3.2 0.00 0.00 0.00 52 1019.7
20260903094601 29 270 0.0 3.2 0.00 0.00 0.00 54 1019.9
20260903093559 28 292 3.2 4.8 0.00 0.00 0.00 55 1019.9
20260903092554 27 135 1.6 6.4 0.00 0.00 0.00 56 1019.8
20260903091550 28 135 3.2 6.4 0.00 0.00 0.00 53 1019.6
20260903090547 28 315 3.2 4.8 0.00 0.00 0.00 53 1019.6
20260903085537 27 292 3.2 4.8 0.00 0.00 0.00 55 1019.9
20260903084534 27 112 3.2 6.4 0.00 0.00 0.00 55 1019.6
20260903083529 26 337 4.8 9.7 0.00 0.00 0.00 56 1019.8
20260903082526 27 337 3.2 4.8 0.00 0.00 0.00 56 1019.8
20260903081542 27 292 3.2 4.8 0.00 0.00 0.00 55 1019.8
20260903075540 27 315 3.2 6.4 0.00 0.00 0.00 56 1019.5
20260903074537 25 315 4.8 9.7 0.00 0.00 0.00 58 1019.4
20260903073524 25 292 4.8 6.4 0.00 0.00 0.00 59 1019.3
20260903072518 25 315 4.8 9.7 0.00 0.00 0.00 60 1019.4
20260903071515 25 315 4.8 6.4 0.00 0.00 0.00 60 1019.4
20260903070512 25 315 3.2 4.8 0.00 0.00 0.00 60 1019.4
20260903064609 23 315 3.2 4.8 0.00 0.00 0.00 63 1019.2
20260903063545 23 315 3.2 6.4 0.00 0.00 0.00 65 1019.2
20260903062624 23 315 3.2 4.8 0.00 0.00 0.00 64 1019.1
20260903061537 22 315 3.2 4.8 0.00 0.00 0.00 64 1019.0
20260903060528 22 315 3.2 3.2 0.00 0.00 0.00 67 1018.8
20260903055543 21 315 1.6 3.2 0.00 0.00 0.00 68 1018.8
20260903054519 21 292 3.2 3.2 0.00 0.00 0.00 68 1018.5
20260903053516 21 315 1.6 3.2 0.00 0.00 0.00 70 1018.7
20260903052513 21 315 1.6 3.2 0.00 0.00 0.00 71 1018.5
20260903051506 20 315 1.6 3.2 0.00 0.00 0.00 73 1018.5